Location: *
(2.7500°S, 66.6833°W)
Time: 23:09:23
(UTC+00:00)

OAO 3 Rocket - Pass Details

Date: 24 May 2024
Orbit: 622 x 671 km, 35.0° (Epoch: 13 June)

Event Time Altitude Azimuth Distance (km) Brightness Sun altitude
Rises 23:21:12 0° 238° (WSW) 2,912 7.1 -14.4°
Reaches altitude 10° 23:23:32 10° 241° (WSW) 2,010 6.2 -14.9°
Maximum altitude 23:28:11 66° 322° (NW) 696 3.5 -16.0°
Drops below altitude 10° 23:32:53 10° 45° (NE) 2,035 5.5 -17.1°
Enters shadow 23:33:55 - 46° (NE) 2,425 5.9 -17.4°
